Погода в Подбуже

Украина / Львовская область     49°19′56″N   23°14′41″E
темп.,
°C
ветер,
м/с
пор.,
м/с
влажн.,
%
обл.,
%
осадки,
мм/ч
давл.,
гПа
погр.,
м
31 июля, сб
сб3100:00+18ююз32734 0.0 101140
03:00+17ююз33710 0.0 101151
06:00+19ююз236189 0.0 101070
09:00+23ююз275668 0.0 1010329
12:00+28юз44385 0.0 10091968
15:00+30ююз243272 0.0 10082846
18:00+18ю268259 0.4 1009149
21:00+17ссз2599100 3.2 1010288
1 августа, вс
вс100:00+16з129984 1.7 101254
03:00+14ююз22960 1.7 101219
06:00+13ююз22920 0.0 101220
09:00+19ю12770 0.0 1011150
12:00+27юв25366 0.0 10101335
15:00+30ю373432 0.0 10072079
18:00+26юз61057100 0.9 10071711
21:00+15ююв4991100 10.5 1005147
2 августа, пн
пн200:00+16сз119310 0.0 100717
03:00+15юз11933 0.0 100612
06:00+14з119815 0.0 100819
09:00+17зсз238499 0.0 1009617
12:00+15сз2598100 0.9 1011572
15:00+14зсз1394100 2.3 1013388
18:00+14зюз1292100 0.1 1013202
21:00+12зюз119663 0.1 101412
3 августа, вт
вт300:00+11юз11965 0.0 101515
03:00+11юз21954 0.0 101615
06:00+10юз11963 0.0 101614
09:00+16зюз11770 0.0 1017232
12:00+21з234812 0.0 10161719
15:00+21ссз245398 0.0 1015868
18:00+22с224743 0.0 10151212
21:00+17юв227648 0.0 101630
4 августа, ср
ср400:00+14ююв2279100 0.0 101622
03:00+15ююз227298 0.0 101525
06:00+13ююз22733 0.0 101537
09:00+20ююз275790 0.0 1015254
12:00+25юз463784 0.0 10142005
15:00+26юз4633100 0.0 10132588
18:00+25ююв244591 0.0 1012808
21:00+20вюв2268100 0.0 101245